User: anonymous   Login
Location: Caltech
(34.1382°N, 118.1253°W)
Time: 21:53:22
(UTC-07:00)
Language:

Cosmos 1833 Rocket - Orbit

View from above orbital plane
View from above orbital plane
View from above satellite
View from above satellite

Ground track
Ground track

The orbit data is extracted from the following two-line orbital elements,

1 17590U 87027B   15107.27801116  .00000254  00000-0  15111-3 0  9999
2 17590 071.0053 017.4709 0003024 058.1872 301.9546 14.16690037451968
Epoch (UTC): 17 April 2015 06:40:20
Eccentricity: 0.0003024
inclination: 71.0053°
perigee height: 834 km
apogee height: 839 km
right ascension of ascending node: 17.4709°
argument of perigee: 58.1872°
revolutions per day: 14.16690037
mean anomaly at epoch: 301.9546°
orbit number at epoch: 45196

The dashed part of the orbit path shows where the satellite is in the earth's shadow,  

DLR